Location: Colossi of Memnon
(25.7167°N, 32.6167°E)
Time: 10:22:04
(UTC+00:00)

Nauka - Pass Details

Date: 05 October 2021
Orbit: 417 x 423 km, 51.6° (Epoch: 17 October)

Event Time Altitude Azimuth Distance (km) Brightness Sun altitude
Rises 16:51:42 0° 334° (NNW) 2,356 ? -18.8°
Reaches altitude 10° 16:54:08 10° 351° (N) 1,492 ? -19.3°
Enters shadow 16:55:21 16° 9° (N) 1,161 ? -19.6°
